Ionia, MI

7:11 AM EDT on September 28, 2016 (GMT -0400)
Ionia

Weather History for KY70 - June, 2013

Change the Weather History Date:

Thursday, June 27, 2013

  Actual Average (KGRR) Record (KGRR)
Temperature  
Mean Temperature 76 °F 71 °F  
Max Temperature 86 °F 82 °F 97 °F (1944)
Min Temperature 66 °F 61 °F 45 °F (1905)
Degree Days  
Heating Degree Days 0 0  
Month to date heating degree days 44  
Since 1 June heating degree days 44  
Since 1 July heating degree days 6484  
Cooling Degree Days 11 7  
Month to date cooling degree days 126  
Year to date cooling degree days 173  
Since 1 June cooling degree days 126  
Growing Degree Days 26 (Base 50)    
Moisture  
Dew Point 68 °F    
Average Humidity 81    
Maximum Humidity 99    
Minimum Humidity 50    
Precipitation  
Precipitation 0.02 in 0.12 in 1.30 in (1921)
Month to date precipitation 3.42  
Year to date precipitation 17.00  
Snow  
Snow 0.00 in 0.00 in 0.00 in (2007)
Month to date snowfall 0.0  
Since 1 June snowfall 0.0  
Since 1 July snowfall 74.9  
Snow Depth -    
Sea Level Pressure  
Sea Level Pressure 29.72 in    
Wind  
Wind Speed 4 mph (West)    
Max Wind Speed 17 mph    
Max Gust Speed 25 mph    
Visibility 8 miles    
Events Fog , Rain    
T = Trace of Precipitation, MM = Missing Value Source: NWS Daily Summary

Daily Weather History Graph

Daily Weather History Graph

Search for Another Location

Airport or City:

Trip Planner

Search our weather history database for the weather conditions in past years. The results will help you decide how hot, cold, wet, or windy it might be!

Date:

Astronomy

Jun. 27, 2013 Rise Set
Actual Time 6:03 AM EDT 9:23 PM EDT
Civil Twilight 5:28 AM EDT 9:58 PM EDT
Nautical Twilight 4:42 AM EDT 10:44 PM EDT
Astronomical Twilight 3:45 AM EDT 11:40 PM EDT
Moon No Moon Rise 11:11 AM EDT (6/27)
Length of Visible Light 16h 30m
Length of Day
15h 19m
Waning Gibbous, 76% of the Moon is Illuminated
Jun 27
Waning Gibbous
Jun 30
Last Quarter
Jul 8
New
Jul 15
First Quarter
Jul 22
Full

Hourly Weather History & Observations

Time (EDT) Temp. Heat Index Dew Point Humidity Pressure Visibility Wind Dir Wind Speed Gust Speed Precip Events Conditions
12:14 AM 73.4 °F - 70.7 °F 91% 29.76 in 7.0 mi ENE 3.5 mph - N/A   Scattered Clouds
12:34 AM 72.9 °F - 70.5 °F 92% 29.76 in 7.0 mi North 4.6 mph - N/A   Clear
12:54 AM 72.5 °F - 70.2 °F 92% 29.75 in 7.0 mi ESE 4.6 mph - N/A   Clear
1:14 AM 73.0 °F - 70.9 °F 93% 29.76 in 7.0 mi Calm Calm - N/A   Clear
1:34 AM 73.4 °F - 70.7 °F 91% 29.75 in 7.0 mi SSE 3.5 mph - N/A   Clear
1:54 AM 73.6 °F - 70.7 °F 91% 29.75 in 10.0 mi SSW 3.5 mph - N/A   Mostly Cloudy
2:14 AM 73.6 °F - 69.4 °F 87% 29.74 in 10.0 mi SSW 3.5 mph - N/A   Scattered Clouds
2:34 AM 72.1 °F - 68.7 °F 89% 29.76 in 10.0 mi Calm Calm - N/A   Clear
2:54 AM 70.2 °F - 68.5 °F 95% 29.75 in 10.0 mi Calm Calm - N/A   Clear
3:14 AM 70.2 °F - 69.1 °F 96% 29.75 in 5.0 mi NNE 3.5 mph - N/A   Clear
3:34 AM 69.8 °F - 68.9 °F 97% 29.74 in 5.0 mi NNE 3.5 mph - N/A   Clear
3:54 AM 70.2 °F - 69.3 °F 97% 29.74 in 7.0 mi Calm Calm - N/A   Clear
4:14 AM 70.0 °F - 68.9 °F 96% 29.74 in 7.0 mi Calm Calm - N/A   Clear
4:34 AM 69.3 °F - 68.4 °F 97% 29.74 in 4.0 mi Calm Calm - N/A   Clear
4:54 AM 69.6 °F - 68.7 °F 97% 29.74 in 7.0 mi Calm Calm - N/A   Scattered Clouds
5:14 AM 67.1 °F - 66.4 °F 98% 29.75 in 3.0 mi Calm Calm - N/A   Clear
5:34 AM 68.0 °F - 67.5 °F 98% 29.75 in 4.0 mi Calm Calm - N/A   Clear
5:54 AM 67.1 °F - 66.6 °F 98% 29.75 in 3.0 mi Calm Calm - N/A   Clear
6:14 AM 66.4 °F - 65.8 °F 98% 29.76 in 0.2 mi Calm Calm - N/A Fog Fog
6:34 AM 67.3 °F - 67.1 °F 99% 29.77 in 2.5 mi Calm Calm - N/A   Clear
6:54 AM 67.8 °F - 67.5 °F 99% 29.76 in 5.0 mi Calm Calm - N/A   Clear
7:14 AM 69.1 °F - 68.5 °F 98% 29.76 in 5.0 mi Calm Calm - N/A   Scattered Clouds
7:34 AM 70.2 °F - 68.9 °F 96% 29.76 in 5.0 mi WSW 3.5 mph - N/A   Scattered Clouds
7:54 AM 70.9 °F - 69.4 °F 95% 29.76 in 5.0 mi West 3.5 mph - N/A   Mostly Cloudy
8:14 AM 71.1 °F - 70.0 °F 96% 29.75 in 1.0 mi WSW 3.5 mph - N/A   Overcast
8:34 AM 71.6 °F - 70.0 °F 95% 29.74 in 2.5 mi Calm Calm - N/A   Overcast
8:54 AM 72.0 °F - 70.5 °F 95% 29.74 in 4.0 mi Calm Calm - N/A   Overcast
9:14 AM 74.1 °F - 70.9 °F 90% 29.75 in 5.0 mi West 4.6 mph - N/A   Mostly Cloudy
9:34 AM 74.7 °F - 71.2 °F 89% 29.75 in 5.0 mi Calm Calm - N/A   Mostly Cloudy
9:54 AM 76.5 °F - 71.8 °F 85% 29.76 in 7.0 mi Calm Calm - N/A   Scattered Clouds
10:14 AM 77.4 °F - 71.6 °F 82% 29.75 in 10.0 mi WNW 3.5 mph - N/A   Scattered Clouds
10:34 AM 78.1 °F - 71.2 °F 79% 29.75 in 10.0 mi NNW 3.5 mph - N/A   Scattered Clouds
10:54 AM 79.7 °F - 70.9 °F 74% 29.75 in 10.0 mi Calm Calm - N/A   Scattered Clouds
11:14 AM 80.6 °F 84.2 °F 70.7 °F 72% 29.74 in 10.0 mi Calm Calm - N/A   Scattered Clouds
11:34 AM 81.1 °F 84.9 °F 70.7 °F 70% 29.74 in 10.0 mi WNW 5.8 mph - N/A   Mostly Cloudy
11:54 AM 82.0 °F 85.9 °F 70.0 °F 67% 29.74 in 10.0 mi West 4.6 mph - N/A   Scattered Clouds
12:14 PM 82.2 °F 86.2 °F 70.2 °F 67% 29.74 in 10.0 mi West 5.8 mph - N/A   Mostly Cloudy
12:34 PM 83.1 °F 87.1 °F 69.8 °F 64% 29.73 in 10.0 mi West 8.1 mph - N/A   Mostly Cloudy
12:54 PM 84.6 °F 88.2 °F 68.9 °F 59% 29.72 in 10.0 mi West 8.1 mph - N/A   Mostly Cloudy
1:14 PM 84.7 °F 89.1 °F 70.0 °F 61% 29.72 in 10.0 mi West 6.9 mph - N/A   Mostly Cloudy
1:34 PM 85.3 °F 89.8 °F 70.0 °F 60% 29.71 in 10.0 mi West 4.6 mph - N/A   Mostly Cloudy
1:54 PM 84.9 °F 88.8 °F 69.3 °F 59% 29.71 in 10.0 mi West 9.2 mph - N/A   Mostly Cloudy
2:14 PM 85.1 °F 88.2 °F 68.0 °F 56% 29.70 in 10.0 mi West 9.2 mph - N/A   Mostly Cloudy
2:34 PM 84.4 °F 87.6 °F 68.4 °F 58% 29.70 in 10.0 mi West 12.7 mph 16.1 mph N/A   Mostly Cloudy
2:54 PM 86.5 °F 89.3 °F 66.9 °F 52% 29.70 in 10.0 mi WNW 10.4 mph - N/A   Scattered Clouds
3:14 PM 85.8 °F 88.5 °F 67.1 °F 53% 29.70 in 10.0 mi West 13.8 mph 20.7 mph N/A   Scattered Clouds
3:34 PM 84.9 °F 87.6 °F 66.9 °F 55% 29.70 in 10.0 mi West 12.7 mph 21.9 mph N/A   Scattered Clouds
3:54 PM 86.2 °F 88.4 °F 66.2 °F 51% 29.69 in 10.0 mi West 16.1 mph 20.7 mph N/A   Scattered Clouds
4:14 PM 86.0 °F 88.8 °F 67.1 °F 53% 29.68 in 10.0 mi WNW 13.8 mph 23.0 mph N/A   Mostly Cloudy
4:34 PM 85.3 °F 87.4 °F 65.8 °F 52% 29.68 in 10.0 mi West 17.3 mph 25.3 mph N/A   Scattered Clouds
4:54 PM 84.7 °F 86.6 °F 65.3 °F 52% 29.69 in 10.0 mi West 13.8 mph 18.4 mph N/A   Clear
5:14 PM 84.2 °F 85.4 °F 63.7 °F 50% 29.69 in 10.0 mi WNW 16.1 mph 21.9 mph N/A   Clear
5:34 PM 83.3 °F 85.3 °F 65.5 °F 55% 29.69 in 10.0 mi WNW 12.7 mph - N/A   Clear
5:54 PM 83.1 °F 86.3 °F 68.2 °F 61% 29.70 in 10.0 mi WNW 11.5 mph - N/A   Clear
6:14 PM 82.6 °F 85.5 °F 68.0 °F 61% 29.69 in 10.0 mi WNW 11.5 mph 18.4 mph N/A   Scattered Clouds
6:34 PM 81.1 °F 84.0 °F 68.2 °F 65% 29.68 in 10.0 mi WNW 5.8 mph - N/A   Scattered Clouds
6:54 PM 76.5 °F - 67.1 °F 73% 29.70 in 10.0 mi ESE 9.2 mph - N/A   Mostly Cloudy
7:14 PM 73.8 °F - 66.0 °F 77% 29.70 in 10.0 mi East 11.5 mph - N/A   Overcast
7:34 PM 73.4 °F - 66.2 °F 78% 29.70 in 10.0 mi East 11.5 mph - N/A   Mostly Cloudy
7:54 PM 73.0 °F - 67.1 °F 82% 29.70 in 10.0 mi East 8.1 mph - N/A   Mostly Cloudy
8:14 PM 72.7 °F - 67.3 °F 83% 29.71 in 10.0 mi ESE 9.2 mph - N/A   Mostly Cloudy
8:34 PM 72.1 °F - 66.4 °F 82% 29.71 in 10.0 mi East 5.8 mph - N/A   Overcast
8:54 PM 72.0 °F - 66.9 °F 84% 29.71 in 10.0 mi East 13.8 mph - N/A   Overcast
9:14 PM 70.5 °F - 66.9 °F 88% 29.70 in 10.0 mi ENE 6.9 mph - 0.01 in Rain Rain
9:34 PM 69.6 °F - 67.1 °F 92% 29.70 in 10.0 mi East 6.9 mph - 0.01 in   Mostly Cloudy
9:54 PM 68.9 °F - 67.1 °F 94% 29.70 in 10.0 mi ESE 3.5 mph - 0.01 in   Scattered Clouds
10:14 PM 68.2 °F - 66.6 °F 95% 29.70 in 10.0 mi SE 4.6 mph - N/A   Scattered Clouds
10:34 PM 68.0 °F - 66.7 °F 96% 29.70 in 10.0 mi SE 4.6 mph - N/A   Clear
10:54 PM 68.4 °F - 67.1 °F 96% 29.70 in 10.0 mi Calm Calm - N/A   Clear
11:14 PM 68.9 °F - 67.5 °F 95% 29.69 in 10.0 mi Calm Calm - N/A   Clear
11:34 PM 69.3 °F - 67.6 °F 95% 29.68 in 10.0 mi West 4.6 mph - 0.01 in   Clear
11:54 PM 69.1 °F - 67.8 °F 96% 29.66 in 10.0 mi Calm Calm - 0.01 in   Clear